Athens Eleftherios, Greece

6:02 PM EEST on May 27, 2017 (GMT +0300)
Eleftherios Venizelos International

Weather History for LGAV - December, 2012

Change the Weather History Date:

Sunday, December 30, 2012

  Actual Average (LGAT) Record (LGAT)
Temperature  
Mean Temperature 52 °F -  
Max Temperature 53 °F 56 °F 63 °F (2013)
Min Temperature 50 °F 45 °F 36 °F (2016)
Degree Days  
Heating Degree Days 14    
Growing Degree Days 2 (Base 50)    
Moisture  
Dew Point 47 °F    
Average Humidity 86    
Maximum Humidity 94    
Minimum Humidity 71    
Precipitation  
Precipitation 0.00 in - - ()
Sea Level Pressure  
Sea Level Pressure 30.06 in    
Wind  
Wind Speed 7 mph ()    
Max Wind Speed 15 mph    
Max Gust Speed -    
Visibility 5.9 miles    
Events Rain    
Averages and records for this station are not official NWS values.
T = Trace of Precipitation, MM = Missing Value Source: Averaged Metar Reports

Daily Weather History Graph

Daily Weather History Graph

Search for Another Location

Airport or City:

Trip Planner

Search our weather history database for the weather conditions in past years. The results will help you decide how hot, cold, wet, or windy it might be!

Date:

Astronomy

Dec. 30, 2012 Rise Set
Actual Time 7:39 AM EET 5:14 PM EET
Civil Twilight 7:10 AM EET 5:43 PM EET
Nautical Twilight 6:37 AM EET 6:16 PM EET
Astronomical Twilight 6:05 AM EET 6:48 PM EET
Moon 7:24 PM EET (12/30) 8:40 AM EET (12/30)
Length of Visible Light 10h 33m
Length of Day
9h 34m
Waning Gibbous, 96% of the Moon is Illuminated
Dec 30
Waning Gibbous
Jan 5
Last Quarter
Jan 11
New
Jan 19
First Quarter
Jan 27
Full

Hourly Weather History & Observations

Time (EET) Temp. Dew Point Humidity Pressure Visibility Wind Dir Wind Speed Gust Speed Precip Events Conditions
12:20 AM 50.0 °F 48.2 °F 94% 30.04 in 6.2 mi NNE 6.9 mph - N/A Rain Light Rain
12:50 AM 50.0 °F 48.2 °F 94% 30.01 in 6.2 mi North 4.6 mph - N/A Rain Light Rain
1:20 AM 50.0 °F 48.2 °F 94% 30.01 in 6.2 mi North 5.8 mph - N/A Rain Light Rain
1:50 AM 50.0 °F 48.2 °F 94% 30.01 in 6.2 mi NNE 15.0 mph - N/A Rain Light Rain
2:20 AM 50.0 °F 48.2 °F 94% 30.01 in 6.2 mi NNE 12.7 mph - N/A Rain Light Rain
2:50 AM 50.0 °F 48.2 °F 94% 30.01 in 6.2 mi North 6.9 mph - N/A   Overcast
3:20 AM 50.0 °F 48.2 °F 94% 30.01 in 6.2 mi Variable 1.2 mph - N/A Rain Light Rain
3:50 AM 50.0 °F 48.2 °F 94% 30.01 in 6.2 mi WSW 4.6 mph - N/A Rain Light Rain
4:20 AM 50.0 °F 48.2 °F 94% 30.01 in 6.2 mi WNW 4.6 mph - N/A Rain Light Rain
4:50 AM 50.0 °F 46.4 °F 87% 30.01 in 6.2 mi NNW 8.1 mph - N/A Rain Light Rain
5:20 AM 50.0 °F 48.2 °F 94% 30.01 in 6.2 mi North 6.9 mph - N/A Rain Light Rain
5:50 AM 50.0 °F 48.2 °F 94% 30.04 in 6.2 mi Variable 2.3 mph - N/A Rain Light Rain
6:20 AM 51.8 °F 48.2 °F 88% 30.04 in 5.6 mi Variable 3.5 mph - N/A Rain Rain
6:50 AM 51.8 °F 46.4 °F 82% 30.04 in 6.2 mi North 4.6 mph - N/A Rain Light Rain
7:20 AM 51.8 °F 46.4 °F 82% 30.04 in 6.2 mi North 6.9 mph - N/A   Drizzle
7:50 AM 50.0 °F 48.2 °F 94% 30.04 in 6.2 mi Variable 1.2 mph - N/A   Mostly Cloudy
8:20 AM 50.0 °F 46.4 °F 87% 30.06 in 6.2 mi NE 4.6 mph - N/A   Mostly Cloudy
8:50 AM 50.0 °F 46.4 °F 87% 30.06 in 3.7 mi North 2.3 mph - N/A Rain Rain
9:20 AM 50.0 °F 46.4 °F 87% 30.06 in 4.3 mi WNW 2.3 mph - N/A Rain Rain
9:50 AM 50.0 °F 46.4 °F 87% 30.06 in 5.0 mi WNW 2.3 mph - N/A Rain Light Rain
10:20 AM 50.0 °F 46.4 °F 87% 30.09 in 5.0 mi WNW 3.5 mph - N/A Rain Light Rain
10:50 AM 50.0 °F 48.2 °F 94% 30.09 in 5.0 mi Variable 3.5 mph - N/A Rain Light Rain
11:20 AM 50.0 °F 46.4 °F 87% 30.09 in 5.0 mi NW 8.1 mph - N/A Rain Light Rain
11:50 AM 50.0 °F 46.4 °F 87% 30.06 in 5.0 mi NNW 8.1 mph - N/A Rain Light Rain
12:20 PM 50.0 °F 46.4 °F 87% 30.06 in 5.6 mi NNW 10.4 mph - N/A   Mostly Cloudy
12:50 PM 50.0 °F 46.4 °F 87% 30.06 in 5.6 mi NW 9.2 mph - N/A Rain Light Rain
1:20 PM 51.8 °F 46.4 °F 82% 30.06 in 6.2 mi NW 5.8 mph - N/A   Mostly Cloudy
1:50 PM 51.8 °F 46.4 °F 82% 30.06 in 6.2 mi WNW 5.8 mph - N/A   Mostly Cloudy
2:20 PM 53.6 °F 50.0 °F 88% 30.06 in 6.2 mi NNW 4.6 mph - N/A   Mostly Cloudy
2:50 PM 53.6 °F 48.2 °F 82% 30.06 in 6.2 mi NNW 8.1 mph - N/A   Mostly Cloudy
3:20 PM 53.6 °F 48.2 °F 82% 30.06 in 6.2 mi North 12.7 mph - N/A   Overcast
3:50 PM 53.6 °F 48.2 °F 82% 30.06 in 6.2 mi North 13.8 mph - N/A   Mostly Cloudy
4:20 PM 53.6 °F 48.2 °F 82% 30.06 in 6.2 mi North 13.8 mph - N/A   Mostly Cloudy
4:50 PM 53.6 °F 48.2 °F 82% 30.06 in 6.2 mi North 11.5 mph - N/A   Mostly Cloudy
5:20 PM 51.8 °F 46.4 °F 82% 30.09 in 6.2 mi North 9.2 mph - N/A   Mostly Cloudy
5:50 PM 51.8 °F 46.4 °F 82% 30.09 in 6.2 mi North 10.4 mph - N/A   Mostly Cloudy
6:20 PM 51.8 °F 46.4 °F 82% 30.09 in 6.2 mi North 8.1 mph - N/A   Light Drizzle
6:50 PM 51.8 °F 46.4 °F 82% 30.09 in 6.2 mi NNW 10.4 mph - N/A   Light Drizzle
7:20 PM 51.8 °F 46.4 °F 82% 30.12 in 6.2 mi NNW 6.9 mph - N/A Rain Light Rain
7:50 PM 50.0 °F 46.4 °F 87% 30.12 in 5.0 mi NW 6.9 mph - N/A Rain Rain
8:20 PM 50.0 °F 44.6 °F 82% 30.12 in 6.2 mi NNW 8.1 mph - N/A   Mostly Cloudy
8:50 PM 51.8 °F 44.6 °F 76% 30.12 in 6.2 mi NW 9.2 mph - N/A   Mostly Cloudy
9:20 PM 51.8 °F 44.6 °F 76% 30.12 in 6.2 mi NW 11.5 mph - N/A   Mostly Cloudy
9:50 PM 51.8 °F 42.8 °F 71% 30.12 in 6.2 mi NNW 11.5 mph - N/A   Mostly Cloudy
10:20 PM 51.8 °F 42.8 °F 71% 30.12 in 6.2 mi NNW 11.5 mph - N/A   Mostly Cloudy
10:50 PM 51.8 °F 44.6 °F 76% 30.12 in 6.2 mi NNW 11.5 mph - N/A   Mostly Cloudy
11:20 PM 51.8 °F 44.6 °F 76% 30.12 in 6.2 mi North 12.7 mph - N/A   Scattered Clouds
11:50 PM 51.8 °F 44.6 °F 76% 30.12 in 6.2 mi North 12.7 mph - N/A   Mostly Cloudy